Weather History for Defiance, OH

Change the Weather History Date:

Wednesday, December 5, 2012

  Actual Average Record
Temperature  
Mean Temperature 34 °F -  
Max Temperature 41 °F 37 °F 66 °F (2001)
Min Temperature 25 °F 23 °F -1 °F (1976)
Degree Days  
Heating Degree Days 32    
Moisture  
Dew Point 24 °F    
Average Humidity 67    
Maximum Humidity 81    
Minimum Humidity 52    
Precipitation  
Precipitation 0.00 in - - ()
Sea Level Pressure  
Sea Level Pressure 30.36 in    
Wind  
Wind Speed 6 mph (North)    
Max Wind Speed 15 mph    
Max Gust Speed -    
Visibility 10 miles    
Events      
Averages and records for this station are not official NWS values.
T = Trace of Precipitation, MM = Missing Value Source: NWS Daily Summary

Daily Weather History Graph

Daily Weather History Graph

Search for Another Location

Airport:

Trip Planner

Search our weather history database for the weather conditions in past years. The results will help you decide how hot, cold, wet, or windy it might be!

Date:

Astronomy

Dec. 05, 2012 Rise Set
Actual Time 7:48 AM EST 5:08 PM EST
Civil Twilight 7:17 AM EST 5:39 PM EST
Nautical Twilight 6:43 AM EST 6:13 PM EST
Astronomical Twilight 6:09 AM EST 6:47 PM EST
Moon No Moon Rise 12:08 PM EST (12/5)
Length of Visible Light 10h 21m
Length of Day
9h 19m
Waning Gibbous, 60% of the Moon is Illuminated
Dec 5
Waning Gibbous
Dec 6
Last Quarter
Dec 13
New
Dec 20
First Quarter
Dec 28
Full

Hourly Weather History & Observations

Time (EST) Temp. Windchill Dew Point Humidity Pressure Visibility Wind Dir Wind Speed Gust Speed Precip Events Conditions
12:53 AM 37.0 °F 34.5 °F 30.9 °F 79% 30.19 in 10.0 mi WSW 3.5 mph - N/A   Clear
1:53 AM 41.0 °F 37.1 °F 32.0 °F 70% 30.22 in 10.0 mi WNW 5.8 mph - N/A   Clear
2:53 AM 37.9 °F 35.5 °F 30.9 °F 76% 30.25 in 10.0 mi WNW 3.5 mph - N/A   Clear
3:53 AM 37.0 °F 28.9 °F 30.0 °F 76% 30.27 in 10.0 mi NW 12.7 mph - N/A   Clear
4:53 AM 35.1 °F 28.6 °F 28.9 °F 78% 30.29 in 10.0 mi NW 8.1 mph - N/A   Clear
5:53 AM 35.1 °F 26.9 °F 27.0 °F 72% 30.31 in 10.0 mi NNW 11.5 mph - N/A   Clear
6:53 AM 33.1 °F 24.4 °F 26.1 °F 75% 30.34 in 10.0 mi NNW 11.5 mph - N/A   Clear
7:53 AM 32.0 °F 22.5 °F 21.9 °F 66% 30.36 in 10.0 mi North 12.7 mph - N/A   Clear
9:53 AM 33.1 °F 23.0 °F 21.0 °F 61% 30.43 in 10.0 mi North 15.0 mph - N/A   Clear
10:53 AM 34.0 °F 25.0 °F 21.0 °F 59% 30.44 in 10.0 mi NNE 12.7 mph - N/A   Clear
11:53 AM 35.1 °F 28.6 °F 21.0 °F 57% 30.43 in 10.0 mi NNE 8.1 mph - N/A   Clear
12:53 PM 36.0 °F 30.3 °F 21.0 °F 55% 30.40 in 10.0 mi NNE 6.9 mph - N/A   Clear
1:53 PM 37.0 °F 33.3 °F 21.9 °F 54% 30.40 in 10.0 mi Variable 4.6 mph - N/A   Clear
2:53 PM 37.9 °F - 21.9 °F 53% 30.40 in 10.0 mi Calm Calm - N/A   Clear
3:53 PM 37.0 °F 33.3 °F 21.0 °F 52% 30.40 in 10.0 mi East 4.6 mph - N/A   Clear
4:53 PM 35.1 °F 31.0 °F 21.9 °F 59% 30.40 in 10.0 mi East 4.6 mph - N/A   Clear
5:53 PM 33.1 °F - 21.0 °F 61% 30.41 in 10.0 mi Calm Calm - N/A   Clear
6:53 PM 30.0 °F - 21.0 °F 69% 30.40 in 10.0 mi Calm Calm - N/A   Clear
7:53 PM 28.9 °F - 21.9 °F 75% 30.40 in 10.0 mi Calm Calm - N/A   Clear
8:53 PM 30.0 °F - 21.0 °F 69% 30.40 in 10.0 mi Calm Calm - N/A   Clear
9:53 PM 28.9 °F - 21.0 °F 72% 30.39 in 10.0 mi Calm Calm - N/A   Clear
10:53 PM 26.1 °F - 19.9 °F 78% 30.39 in 10.0 mi Calm Calm - N/A   Clear
11:53 PM 25.0 °F 19.3 °F 19.9 °F 81% 30.36 in 10.0 mi East 4.6 mph - N/A   Clear